Location: Artiguedieu
(43.5000°N, 0.5454°E)
Time: 10:02:04
(UTC+00:00)

Vanguard 1 Rocket - Pass Details

Date: 06 August 2021
Orbit: 650 x 4226 km, 34.3° (Epoch: 24 September)

Event Time Altitude Azimuth Distance (km) Brightness Sun altitude
Rises 15:33:51 0° 274° (W) 5,463 12.2 38.2°
Reaches altitude 10° 15:42:00 10° 240° (WSW) 3,409 11.5 36.8°
Maximum altitude 15:43:13 10° 231° (SW) 3,225 11.3 36.6°
Drops below altitude 10° 15:44:23 10° 222° (SW) 3,109 11.0 36.4°
Sets 15:49:42 0° 181° (S) 3,448 10.5 35.4°
